TIME,DELAY(SENSOR),PRES,OXYGEN,RAWTEMP,T(OPTODE),TCPHASE,FLUOR,BETA(BETA700),BETA(BETA412),BETA(BETA440),CDOM,C(CSC),ED(ED411.90),ED(ED443.80),ED(ED489.40),ED(ED554.70),LU(LU412.20),LU(LU443.80),LU(LU489.40),LU(LU555.00),COMP,TILTX,TILTY,CHECK
1354226161,5807,842.2000122070312000,165.5148010253906200,421.9251098632812500,9.9333400726318360,38.9122581481933600,52,101,55,54,61,13260,2146961892,2147514349,2147286171,2147504384,2147087990,2146932214,2147700544,2147120219,979,-1,9,28967
1354229757,5804,959.4299926757812000,195.4888000488281200,496.3039855957031000,7.6441130638122560,38.1164016723632800,52,101,56,55,62,13256,2146965805,2147515346,2147294747,2147517421,2147091529,2146923282,2147721837,2147121133,2183,-1,9,43990
1354233357,5809,969.6900024414062000,206.8880004882812500,508.1419982910156000,7.2766718864440920,37.6235198974609400,53,99,57,55,62,13253,2146960886,2147516306,2147295926,2147519094,2147090514,2146924196,2147724086,2147119881,880,-1,8,53582
1354236957,5805,988.6799926757812000,216.0000000000000000,521.1472167968750000,6.8718919754028320,37.3216514587402340,51,108,56,55,61,13250,2146961993,2147515730,2147296704,2147522651,2147090166,2146923593,2147723218,2147121636,276,-1,8,386
1354240557,5806,993.9099731445312000,219.8220977783203000,523.9161987304688000,6.7855529785156250,37.1542816162109400,52,101,54,54,61,13247,2146964333,2147517229,2147299337,2147520201,2147087689,2146917312,2147722093,2147119497,3547,-1,8,55007
1354244157,5805,998.5200195312500000,222.2252960205078000,524.8668212890625000,6.7558989524841310,37.0371017456054700,52,112,55,54,61,13249,2146962258,2147518025,2147294738,2147521033,2147090724,2146920822,2147720173,2147121462,269,-1,8,25656
1354247757,5804,1000.8499755859375000,223.3795928955078000,525.3923950195312000,6.7395019531250000,36.9822311401367200,52,102,56,54,61,13246,2146966427,2147516416,2147296219,2147521773,2147088612,2146920621,2147725933,2147119195,3557,0,9,1284
1354251357,5805,1001.5200195312500000,222.6564941406250000,526.0921020507812000,6.7176690101623535,37.0348701477050800,52,103,57,55,62,13242,2146967542,2147516534,2147297782,2147522002,2147089225,2146923090,2147724982,2147121197,438,0,8,28082
1354254957,5807,1004.0999755859375000,223.4804992675781200,526.3281860351562000,6.7102999687194820,36.9934310913085940,52,99,55,54,62,13242,2146963730,2147517248,2147298523,2147519296,2147089481,2146919524,2147727753,2147120009,24,-1,8,49880
1354258557,5810,1005.4899902343750000,223.2348937988281200,526.5225830078125000,6.7042350769042970,37.0105590820312500,52,102,55,55,61,13241,2146961033,2147520548,2147297170,2147520384,2147090258,2146919232,2147725339,2147122825,74,0,8,59193
1354262157,5807,1008.0599975585938000,223.5104980468750000,526.1580810546875000,6.7156090736389160,36.9884910583496100,52,102,55,54,61,13240,2146964800,2147516800,2147298048,2147522989,2147090020,2146924955,2147726838,2147123181,3312,0,8,21001
1354265757,5807,1014.3800048828125000,222.1970062255859400,525.8148193359375000,6.7263231277465820,37.0555114746093750,52,102,56,56,61,13240,2146959917,2147519286,2147301074,2147522459,2147089846,2146922212,2147723254,2147119424,272,-1,8,20568
1354269357,5808,1011.4500122070312000,222.8441009521484400,525.3181762695312000,6.7418160438537600,37.0112380981445300,52,101,55,55,61,13236,2146963300,2147513846,2147299922,2147518811,2147092964,2146921289,2147722541,2147119003,402,0,8,19360
1354272957,5807,1014.3200073242188000,222.2557983398437500,525.7880249023438000,6.7271590232849120,37.0518493652343750,52,102,55,54,61,13235,2146966144,2147513974,2147299309,2147522203,2147093312,2146923940,2147720027,2147120950,219,-1,8,6770
1354276557,5807,1012.2199707031250000,222.8025970458984400,525.6331176757812000,6.7319908142089840,37.0187797546386700,52,101,55,55,62,13237,2146963254,2147518537,2147297755,2147520128,2147093065,2146919396,2147725174,2147120429,118,-1,8,7915
1354280157,5808,1011.4799804687500000,222.6459960937500000,525.6093750000000000,6.7327299118041990,37.0269889831543000,52,101,56,54,61,13238,2146960804,2147518774,2147295396,2147519936,2147089005,2146919259,2147723693,2147119232,2988,-1,9,27703
1354283757,5809,1016.7600097656250000,221.3119964599609400,525.6807861328125000,6.7305011749267580,37.1020011901855500,51,100,56,55,61,13238,2146963748,2147520338,2147300114,2147521874,2147090020,2146916809,2147722413,2147117129,215,-1,8,60672
1354287357,5808,1008.8599853515625000,221.8330993652343800,526.0858154296875000,6.7178668975830080,37.0801811218261700,51,103,55,55,61,13237,2146965540,2147514907,2147297380,2147524096,2147091437,2146915849,2147721737,2147118445,775,0,8,15417
1354290957,5807,1011.2800292968750000,224.2850036621093800,526.4901123046875000,6.7052497863769530,36.9520988464355500,53,103,56,56,62,13235,2146963913,2147516873,2147299739,2147520182,2147089664,2146921298,2147722715,2147119936,2678,-1,8,54407
1354294557,5804,1012.4299926757812000,223.8271026611328000,525.8408203125000000,6.7255101203918460,36.9656982421875000,53,103,55,54,61,13232,2146960274,2147518336,2147296301,2147519798,2147090678,2146922112,2147724662,2147117312,2531,-1,8,30356
1354298157,5807,1015.5700073242188000,224.3630981445312500,526.7755737304688000,6.6963372230529785,36.9531593322753900,52,107,55,55,62,13232,2146961554,2147515675,2147303945,2147522185,2147089472,2146920630,2147723638,2147117833,3051,-1,8,5318
1354301757,5804,1008.0000000000000000,225.0926971435547000,528.1870117187500000,6.6522808074951170,36.9386215209960940,52,103,54,55,61,13232,2146962157,2147516370,2147297627,2147522724,2147091666,2146916992,2147724571,2147123876,3165,-1,8,33726
1354305357,5806,1007.4899902343750000,225.4627990722656200,528.5057983398438000,6.6423239707946780,36.9233894348144500,53,102,55,55,62,13229,2146965220,2147515867,2147298880,2147522185,2147090715,2146923940,2147730605,2147118555,3108,-1,9,9064
1354308957,5807,1010.6599731445312000,225.2238006591797000,527.9722290039062000,6.6589851379394530,36.9276008605957000,52,103,58,54,61,13232,2146968941,2147515858,2147298898,2147516937,2147090102,2146919634,2147721069,2147119643,15,-1,8,9824
1354312557,5807,1015.4400024414062000,225.2814941406250000,527.4208984375000000,6.6761951446533200,36.9141082763671900,52,102,54,55,62,13231,2146964297,2147517549,2147300699,2147521700,2147090971,2146923392,2147725568,2147120256,427,-1,8,53592
1354316157,5803,1011.7800292968750000,225.5117034912109400,528.4431152343750000,6.6442809104919430,36.9194984436035160,52,101,55,55,60,13226,2146963556,2147515291,2147297600,2147523254,2147091821,2146921280,2147726921,2147121965,3422,-1,9,45571
1354319757,5807,1010.4899902343750000,226.1829986572265600,528.8961181640625000,6.6301360130310060,36.8910217285156250,52,103,55,55,62,13225,2146965083,2147514724,2147298761,2147519908,2147089536,2146916635,2147722185,2147120640,382,-1,8,50874
1354323357,5808,1009.5200195312500000,225.8235015869140600,528.8958129882812000,6.6301479339599610,36.9110107421875000,52,101,55,54,62,13220,2146961261,2147515520,2147299090,2147522075,2147091062,2146919177,2147722532,2147117092,449,-1,8,29899
1354326957,5807,1007.2299804687500000,226.1539001464843800,529.0794067382812000,6.6244130134582520,36.8964195251464840,52,104,55,55,62,13221,2146963309,2147520283,2147299702,2147523008,2147091556,2146928219,2147726875,2147120036,772,-1,8,1056
1354330557,5808,1013.7299804687500000,226.1826934814453000,528.9462280273438000,6.6285738945007320,36.8923988342285160,52,101,54,54,61,13217,2146961014,2147518006,2147298148,2147519497,2147091730,2146923593,2147723638,2147123638,651,-1,8,13545
1354334157,5807,1014.6400146484375000,225.2993011474609400,528.8286743164062000,6.6322422027587890,36.9379615783691400,52,101,55,55,62,13209,2146961810,2147516123,2147295734,2147524498,2147091099,2146921920,2147721115,2147116077,3154,-1,9,62742
1354337757,5804,1009.5900268554688000,225.0671997070312500,528.8762207031250000,6.6307601928710940,36.9522209167480500,53,108,55,55,61,13209,2146960886,2147518838,2147298605,2147522788,2147089088,2146923739,2147721654,2147118756,3493,-1,8,247
1354341357,5808,1012.9199829101562000,225.7077026367187500,528.5775146484375000,6.6400871276855470,36.9117698669433600,52,100,54,54,61,13206,2146963355,2147516260,2147299099,2147523008,2147093568,2146918948,2147723657,2147121965,622,-1,8,54528
1354344957,5807,1015.2299804687500000,224.8126983642578000,528.2788085937500000,6.6494121551513670,36.9546394348144500,53,187,55,54,61,13206,2146963300,2147514285,2147299684,2147519716,2147092626,2146925312,2147727113,2147118253,371,0,8,1783
1354348557,5808,1010.6799926757812000,224.5599975585937500,528.7672729492188000,6.6341590881347660,36.9778594970703100,51,111,53,54,62,13206,2146963291,2147515483,2147298514,2147518281,2147089426,2146920054,2147725924,2147118857,323,0,8,59477
1354352157,5806,1012.7500000000000000,224.7691040039062500,529.7100219726562000,6.6047191619873050,36.9828491210937500,52,103,56,55,61,13204,2146963547,2147519616,2147299364,2147520329,2147090130,2146916626,2147725001,2147117522,822,-1,8,64408
1354355757,5808,1014.7800292968750000,224.8647003173828000,528.8931884765625000,6.6302261352539060,36.9631614685058600,52,102,56,54,62,13199,2146961188,2147518592,2147296512,2147525147,2147089974,2146921124,2147724489,2147120585,5,-1,8,48156
1354359357,5807,1016.2000122070312000,225.6392974853515600,528.7487792968750000,6.6347370147705080,36.9180793762207000,52,99,54,55,62,13205,2146963702,2147520484,2147297645,2147522998,2147088731,2146922002,2147726354,2147120512,2619,-1,8,58872
1354362957,5806,1021.2000122070312000,224.7893066406250000,527.5634765625000000,6.6717448234558105,36.9440498352050800,52,105,55,54,60,13204,2146965522,2147518336,2147297499,2147521417,2147092571,2146921216,2147724982,2147120054,2621,-1,9,7056
1354366557,5800,1019.0700073242188000,224.2290954589843800,526.9581298828125000,6.6906428337097170,36.9633903503418000,52,103,55,53,61,13198,2146959862,2147514505,2147297206,2147518976,2147089490,2146921142,2147723629,2147119798,2891,-1,9,21217
1354370157,5806,1016.9799804687500000,224.2677001953125000,527.4785156250000000,6.6743969917297360,36.9708404541015600,51,102,54,55,61,13200,2146962614,2147519378,2147298185,2147519350,2147090258,2146918893,2147726811,2147118226,3115,-1,8,23182
1354371056,5804,1017.0599975585938000,224.1844940185547000,527.6954956054688000,6.6676239967346190,36.9788208007812500,52,101,55,55,61,13190,2146965229,2147519872,2147293750,2147520365,2147090861,2146918281,2147727076,2147117778,3290,-1,8,38726
